FW4074 Weather Reports


time (UTC)temp
C
wind
direction
speed
KPH
gust
KPH
rain 1hr
cm
rain 24hr
cm
rain mn
cm
humidity
%
barometer
mb
20260506114502 25 144 8.0 14.5 0.00 0.00 0.00 90 1008.9
20260506113001 25 133 8.0 16.1 0.00 0.00 0.00 90 1008.8
20260506111501 25 129 6.4 16.1 0.00 0.00 0.00 90 1008.8
20260506110001 25 142 9.7 19.3 0.00 0.00 0.00 90 1008.8
20260506104636 25 166 9.7 16.1 0.00 0.00 0.00 90 1008.8
20260506103108 25 157 11.3 17.7 0.00 0.00 0.00 90 1008.8
20260506101559 25 159 11.3 17.7 0.00 0.00 0.00 90 1008.8
20260506100058 25 171 12.9 20.9 0.00 0.00 0.00 91 1008.7
20260506094558 24 139 12.9 24.1 0.00 0.00 0.00 91 1008.5
20260506093057 25 133 11.3 22.5 0.00 0.00 0.00 91 1008.2
20260506091559 25 168 14.5 19.3 0.00 0.00 0.00 90 1008.2
20260506090057 25 132 12.9 22.5 0.00 0.00 0.00 90 1008.1
20260506084555 24 144 12.9 24.1 0.00 0.00 0.00 90 1008.0
20260506083055 24 161 14.5 20.9 0.00 0.00 0.00 90 1008.2
20260506081559 24 152 11.3 19.3 0.00 0.00 0.00 90 1008.3
20260506080106 24 165 16.1 25.7 0.00 0.00 0.00 90 1008.3
20260506073050 24 156 14.5 24.1 0.00 0.00 0.00 90 1009.0
20260506071547 25 144 12.9 22.5 0.00 0.00 0.00 90 1009.2
20260506061545 25 164 16.1 32.2 0.00 0.00 0.00 90 1009.3
20260506044538 25 159 24.1 33.8 0.00 0.00 0.00 89 1009.3
20260506043047 25 155 20.9 30.6 0.00 0.00 0.00 89 1009.4
20260506041538 25 159 24.1 33.8 0.00 0.00 0.00 89 1009.4
20260506040045 25 169 24.1 37.0 0.00 0.00 0.00 89 1009.5
20260506034537 25 166 22.5 32.2 0.00 0.00 0.00 89 1009.2
20260506033035 25 153 24.1 32.2 0.00 0.00 0.00 89 1009.2
20260506031536 25 162 24.1 35.4 0.00 0.00 0.00 89 1009.0
20260506030034 25 168 24.1 30.6 0.00 0.00 0.00 89 1008.7
20260506024542 25 148 17.7 35.4 0.00 0.00 0.00 88 1008.5
20260506023033 25 168 24.1 33.8 0.00 0.00 0.00 89 1008.4
20260506021549 25 172 24.1 35.4 0.00 0.00 0.00 89 1008.2
20260506020032 25 161 22.5 33.8 0.00 0.00 0.00 89 1008.1
20260506014532 25 164 22.5 29.0 0.00 0.00 0.00 89 1007.9
20260506013031 25 142 22.5 35.4 0.00 0.00 0.00 88 1007.7
20260506011532 25 140 22.5 32.2 0.00 0.00 0.00 88 1007.6
20260506010043 25 139 20.9 32.2 0.00 0.00 0.00 88 1007.5
20260506004530 25 168 22.5 33.8 0.00 0.00 0.00 88 1007.3
20260506003030 25 158 19.3 29.0 0.00 0.00 0.00 88 1007.2
20260506001530 25 153 17.7 33.8 0.00 0.00 0.00 88 1007.3
20260506000031 25 149 22.5 30.6 0.00 0.00 0.00 86 1007.3
20260505234539 25 157 25.7 33.8 0.00 0.00 0.00 86 1007.3
20260505233028 25 133 20.9 35.4 0.00 0.00 0.00 87 1007.5
20260505231529 26 140 20.9 33.8 0.00 0.00 0.00 86 1007.5
20260505230025 26 139 22.5 32.2 0.00 0.00 0.00 86 1007.6
20260505224530 26 166 20.9 33.8 0.00 0.00 0.00 86 1007.6
20260505223024 26 138 19.3 37.0 0.00 0.00 0.00 86 1007.7
20260505221523 26 156 22.5 33.8 0.00 0.00 0.00 86 1007.6
20260505220021 26 119 19.3 33.8 0.00 0.00 0.00 85 1007.7
20260505214519 26 152 25.7 35.4 0.00 0.00 0.00 85 1007.8
20260505213020 26 125 22.5 33.8 0.00 0.00 0.00 85 1008.0
20260505211533 26 172 22.5 30.6 0.00 0.00 0.00 85 1008.1
20260505210014 26 167 22.5 30.6 0.00 0.00 0.00 85 1008.5
20260505204513 26 167 20.9 33.8 0.00 0.00 0.00 85 1008.7
20260505203011 26 171 17.7 30.6 0.00 0.00 0.00 84 1008.9
20260505201510 26 186 22.5 35.4 0.00 0.00 0.00 84 1009.0
20260505200010 26 170 22.5 38.6 0.00 0.00 0.00 84 1009.3
20260505194509 26 173 22.5 32.2 0.00 0.00 0.00 83 1009.4
20260505193009 26 196 19.3 32.2 0.00 0.00 0.00 83 1009.5
20260505191508 26 149 19.3 33.8 0.00 0.00 0.00 84 1009.6
20260505190012 26 180 20.9 30.6 0.00 0.00 0.00 84 1009.5
20260505184516 26 184 25.7 33.8 0.00 0.00 0.00 84 1009.4
20260505183007 26 171 22.5 32.2 0.00 0.00 0.00 84 1009.7
20260505181506 26 178 24.1 41.8 0.00 0.00 0.00 83 1009.8
20260505180005 26 188 24.1 38.6 0.00 0.00 0.00 83 1009.9
20260505174504 26 157 25.7 38.6 0.00 0.00 0.00 84 1010.0
20260505173003 26 171 25.7 38.6 0.00 0.00 0.00 84 1010.2
20260505171506 26 169 24.1 32.2 0.00 0.00 0.00 84 1010.2
20260505170004 26 189 27.4 38.6 0.00 0.00 0.00 84 1010.3
20260505164501 26 182 17.7 30.6 0.00 0.00 0.00 85 1010.4
20260505163100 25 185 22.5 27.4 0.00 0.00 0.00 85 1010.4
20260505161559 26 184 17.7 29.0 0.00 0.00 0.00 85 1010.3
20260505153057 25 173 24.1 35.4 0.00 0.00 0.00 86 1009.9
20260505151555 25 183 19.3 32.2 0.00 0.00 0.00 86 1009.9
20260505124541 24 188 20.9 30.6 0.00 0.00 0.00 88 1009.4
20260505123041 23 179 20.9 27.4 0.00 0.00 0.00 89 1009.4
20260505121547 23 169 19.3 29.0 0.00 0.00 0.00 88 1009.3
20260505120035 23 194 17.7 24.1 0.00 0.00 0.00 89 1009.4